Hourly Data Report for July 11, 2013

All times are specified in Local Standard Time (LST). Add 1 hour to adjust for Daylight Saving Time where and when it is observed.

INUVIK A
NORTHWEST TERRITORIES

68°18'14.000" N
133°28'59.000" W
67.70 m
2202571
YEV

Related Data

No related data is available for this station

Download Data

Hourly Data (July 2013)
Hourly Data Report for July 11, 2013
Temp Definition
°C
Dew Point Temp Definition
°C
Rel Hum Definition
%
Wind Dir Definition
10's deg

Wind Spd Definition
km/h
Visibility Definition
km
Stn Press Definition
kPa
Hmdx Definition


Wind Chill Definition


Weather Definition


TIME
00:00 Legend Double Dagger 6.6 3.4 80 35 13 24.1 101.25     LegendNANA
01:00 Legend Double Dagger 4.8 2.7 86 34 13 24.1 101.31     LegendNANA
02:00 Legend Double Dagger 3.7 1.9 88 33 13 24.1 101.35     Mainly Clear
03:00 Legend Double Dagger 4.1 2.3 88 33 18 24.1 101.39     LegendNANA
04:00 Legend Double Dagger 4.1 2.1 87 33 11 24.1 101.42     LegendNANA
05:00 Legend Double Dagger 3.9 1.8 86 33 17 24.1 101.43     Mostly Cloudy
06:00 Legend Double Dagger 3.3 1.0 85 34 18 24.1 101.46     LegendNANA
07:00 Legend Double Dagger 2.6 1.0 89 35 15 12.9 101.49     Drizzle
08:00 Legend Double Dagger 2.5 1.0 90 34 17 24.1 101.51     Drizzle
09:00 Legend Double Dagger 3.0 1.1 87 35 20 16.1 101.51     Drizzle
10:00 Legend Double Dagger 3.3 1.5 88 33 14 16.1 101.53     Drizzle
11:00 Legend Double Dagger 4.0 2.7 91 33 13 3.2 101.55     Drizzle,Fog
12:00 Legend Double Dagger 4.1 2.9 92 33 25 12.9 101.56     Drizzle
13:00 Legend Double Dagger 4.8 2.0 82 35 23 24.1 101.60     LegendNANA
14:00 Legend Double Dagger 4.8 1.5 79 34 20 24.1 101.62     Cloudy
15:00 Legend Double Dagger 5.1 1.0 75 35 24 24.1 101.62     LegendNANA
16:00 Legend Double Dagger 5.7 0.9 71 34 20 24.1 101.63     LegendNANA
17:00 Legend Double Dagger 7.3 1.2 65 35 17 24.1 101.63     Mostly Cloudy
18:00 Legend Double Dagger 6.3 0.6 67 35 17 24.1 101.64     LegendNANA
19:00 Legend Double Dagger 6.4 0.7 67 36 17 24.1 101.67     LegendNANA
20:00 Legend Double Dagger 6.3 0.4 66 34 14 24.1 101.66     Mostly Cloudy
21:00 Legend Double Dagger 5.0 0.6 73 35 13 24.1 101.67     LegendNANA
22:00 Legend Double Dagger 4.0 0.3 77 34 15 24.1 101.66     LegendNANA
23:00 Legend Double Dagger 3.1 0.2 81 2 14 24.1 101.70     Mostly Cloudy

Notes on Data Quality.

Legend

  • E = Estimated
  • M = Missing
  • NA = Not Available
  • ‡ = Partner data that is not subject to review by the National Climate Archives
Date modified: